This is the latest recevied weather packets stored in our database for station/object PY2UEP-1. If no packets are shown the sender has not sent any weather packets the latest 10 day(s).
| Time | Temp. | Humidity | Pressure | Rain* | Wind** | Luminosity | Snow |
|---|---|---|---|---|---|---|---|
| 1778328294 | 21.67° C | 78% | 1017.8 hPa | 0 mm | - | - | - |
| 1778327994 | 22.22° C | 78% | 1017.7 hPa | 0 mm | - | - | - |
| 1778327694 | 22.22° C | 78% | 1017.7 hPa | 0 mm | - | - | - |
| 1778327394 | 21.67° C | 78% | 1017.6 hPa | 0 mm | - | - | - |
| 1778327094 | 21.67° C | 80% | 1017.6 hPa | 0 mm | - | - | - |
| 1778326794 | 21.67° C | 81% | 1017.2 hPa | 0 mm | - | - | - |
| 1778326494 | 21.11° C | 82% | 1017.2 hPa | 0 mm | - | - | - |
| 1778326194 | 21.11° C | 82% | 1017.2 hPa | 0 mm | - | - | - |
| 1778325894 | 21.11° C | 83% | 1017.4 hPa | 0 mm | - | - | - |
| 1778325594 | 20.56° C | 84% | 1017 hPa | 0 mm | - | - | - |
| 1778325294 | 20.56° C | 84% | 1017 hPa | 0 mm | - | - | - |
| 1778324994 | 20.56° C | 85% | 1016.9 hPa | 0 mm | - | - | - |
| 1778324694 | 20.56° C | 86% | 1016.7 hPa | 0 mm | - | - | - |
| 1778324394 | 20° C | 87% | 1016.7 hPa | 0 mm | - | - | - |
| 1778324094 | 20° C | 87% | 1016.6 hPa | 0 mm | - | - | - |
| 1778323794 | 20° C | 87% | 1016.6 hPa | 0 mm | - | - | - |
| 1778323494 | 20° C | 87% | 1016.6 hPa | 0 mm | - | - | - |
| 1778323194 | 20° C | 87% | 1016.6 hPa | 0 mm | - | - | - |
| 1778322894 | 20° C | 88% | 1016.4 hPa | 0 mm | - | - | - |
| 1778322594 | 20° C | 88% | 1016.3 hPa | 0 mm | - | - | - |
| 1778322294 | 19.44° C | 88% | 1016.2 hPa | 0 mm | - | - | - |
| 1778321994 | 19.44° C | 89% | 1016.3 hPa | 0 mm | - | - | - |
| 1778321694 | 19.44° C | 89% | 1016.2 hPa | 0 mm | - | - | - |
| 1778321394 | 19.44° C | 90% | 1016.1 hPa | 0 mm | - | - | - |
| 1778321094 | 19.44° C | 90% | 1015.8 hPa | 0 mm | - | - | - |
* Rain since midnight (hover to see other rain measurements)
** Current wind speed in m/s (hover to see current wind gust speed)